Change the Weather History Date:

Friday, October 26, 2012

  Actual Average Record
Temperature  
Mean Temperature 50 °F -  
Max Temperature 65 °F 54 °F 75 °F (2004)
Min Temperature 36 °F 29 °F 29 °F (2013)
Degree Days  
Heating Degree Days 14    
Moisture  
Dew Point 42 °F    
Average Humidity 79    
Maximum Humidity 100    
Minimum Humidity 45    
Precipitation  
Precipitation 0.00 in - - ()
Sea Level Pressure  
Sea Level Pressure 29.94 in    
Wind  
Wind Speed 3 mph ()    
Max Wind Speed 10 mph    
Max Gust Speed -    
Visibility 4.8 miles    
Events Fog    
Averages and records for this station are not official NWS values.
T = Trace of Precipitation, MM = Missing Value Source: Averaged Metar Reports

Daily Weather History Graph

Daily Weather History Graph

Search for Another Location

Airport or City:

Trip Planner

Search our weather history database for the weather conditions in past years. The results will help you decide how hot, cold, wet, or windy it might be!

Date:

Astronomy

Oct. 26, 2012 Rise Set
Actual Time 7:10 AM EEST 5:52 PM EEST
Civil Twilight 6:42 AM EEST 6:20 PM EEST
Nautical Twilight 6:11 AM EEST 6:52 PM EEST
Astronomical Twilight 5:39 AM EEST 7:23 PM EEST
Moon 3:58 PM EEST (10/26) 3:46 AM EEST (10/26)
Length of Visible Light 11h 37m
Length of Day
10h 41m
Waxing Gibbous, 89% of the Moon is Illuminated
Oct 26
Waxing Gibbous
Oct 29
Full
Nov 7
Last Quarter
Nov 14
New
Nov 20
First Quarter

Hourly Weather History & Observations

Time (EEST) Temp. Windchill Dew Point Humidity Pressure Visibility Wind Dir Wind Speed Gust Speed Precip Events Conditions
12:20 AM 44.6 °F - 42.8 °F 93% 29.92 in 5.0 mi Variable 1.2 mph - N/A   Partly Cloudy
12:50 AM 44.6 °F 43.1 °F 44.6 °F 100% 29.92 in 5.0 mi East 3.5 mph - N/A   Partly Cloudy
1:20 AM 42.8 °F - 41.0 °F 93% 29.92 in 5.0 mi Variable 2.3 mph - N/A   Partly Cloudy
1:50 AM 41.0 °F 39.0 °F 39.2 °F 93% 29.92 in 5.0 mi NNW 3.5 mph - N/A   Partly Cloudy
2:20 AM 41.0 °F - 41.0 °F 100% 29.92 in 5.0 mi Variable 1.2 mph - N/A   Partly Cloudy
2:50 AM 42.8 °F - 41.0 °F 93% 29.92 in 5.0 mi Variable 1.2 mph - N/A   Partly Cloudy
3:00 AM 42 °F - 42 °F 99% 29.90 in 5 mi Calm Calm - -   Mist
3:20 AM 41.0 °F - 41.0 °F 100% 29.92 in 5.0 mi Variable 1.2 mph - N/A   Partly Cloudy
3:50 AM 41.0 °F - 39.2 °F 93% 29.92 in 5.0 mi Variable 1.2 mph - N/A   Partly Cloudy
4:20 AM 39.2 °F - 39.2 °F 100% 29.92 in 2.2 mi Variable 1.2 mph - N/A   Partly Cloudy
4:50 AM 37.4 °F - 37.4 °F 100% 29.92 in 2.5 mi Variable 1.2 mph - N/A   Partly Cloudy
5:20 AM 39.2 °F - 39.2 °F 100% 29.92 in - NE 1.2 mph - N/A   Partly Cloudy
5:50 AM 39.2 °F - 39.2 °F 100% 29.92 in 1.1 mi NE 2.3 mph - N/A   Partly Cloudy
6:20 AM 37.4 °F 34.9 °F 37.4 °F 100% 29.95 in 1.6 mi North 3.5 mph - N/A   Partly Cloudy
6:50 AM 37.4 °F - 37.4 °F 100% 29.95 in 1.6 mi Variable 1.2 mph - N/A   Partly Cloudy
7:20 AM 37.4 °F - 37.4 °F 100% 29.95 in 2.2 mi Variable 1.2 mph - N/A   Scattered Clouds
7:50 AM 37.4 °F - 37.4 °F 100% 29.95 in 1.0 mi Variable 2.3 mph - N/A   Scattered Clouds
8:20 AM 37.4 °F - 37.4 °F 100% 29.95 in 1.0 mi Variable 2.3 mph - N/A   Scattered Clouds
8:50 AM 39.2 °F - 39.2 °F 100% 29.95 in 0.2 mi Variable 1.2 mph - N/A Fog Patches of Fog
9:00 AM 39 °F - 38 °F 97% 29.99 in 0 mi NW 1.2 mph - - Fog Light Fog
9:20 AM 41.0 °F - 41.0 °F 100% 29.95 in 0.4 mi Variable 2.3 mph - N/A Fog Patches of Fog
9:50 AM 44.6 °F - 42.8 °F 93% 29.95 in 2.5 mi South 1.2 mph - N/A   Scattered Clouds
10:20 AM 48.2 °F - 44.6 °F 87% 29.95 in 6.2 mi Variable 2.3 mph - N/A   Partly Cloudy
10:50 AM 51.8 °F - 46.4 °F 82% 29.95 in 6.2 mi Variable 2.3 mph - N/A   Partly Cloudy
11:20 AM 55.4 °F - 46.4 °F 72% 29.95 in 6.2 mi Variable 2.3 mph - N/A   Partly Cloudy
11:50 AM 59.0 °F - 44.6 °F 59% 29.95 in 6.2 mi South 3.5 mph - N/A   Partly Cloudy
12:20 PM 60.8 °F - 46.4 °F 59% 29.95 in 6.2 mi South 4.6 mph - N/A   Partly Cloudy
12:50 PM 60.8 °F - 46.4 °F 59% 29.92 in 6.2 mi South 6.9 mph - N/A   Partly Cloudy
1:20 PM 62.6 °F - 46.4 °F 55% 29.92 in 6.2 mi South 5.8 mph - N/A   Scattered Clouds
1:50 PM 60.8 °F - 44.6 °F 55% 29.92 in 6.2 mi SW 8.1 mph - N/A   Scattered Clouds
2:20 PM 60.8 °F - 44.6 °F 55% 29.92 in 6.2 mi WSW 4.6 mph - N/A   Scattered Clouds
2:50 PM 64.4 °F - 44.6 °F 49% 29.92 in 6.2 mi WNW 3.5 mph - N/A   Scattered Clouds
3:20 PM 62.6 °F - 42.8 °F 48% 29.92 in 6.2 mi West 9.2 mph - N/A   Scattered Clouds
3:50 PM 64.4 °F - 42.8 °F 45% 29.92 in 6.2 mi WSW 10.4 mph - N/A   Scattered Clouds
4:20 PM 64.4 °F - 44.6 °F 49% 29.92 in 6.2 mi SW 10.4 mph - N/A   Scattered Clouds
4:50 PM 62.6 °F - 42.8 °F 48% 29.89 in 6.2 mi SW 8.1 mph - N/A   Scattered Clouds
5:20 PM 62.6 °F - 44.6 °F 52% 29.89 in 6.2 mi WSW 6.9 mph - N/A   Scattered Clouds
5:50 PM 59.0 °F - 44.6 °F 59% 29.92 in 6.2 mi SSW 8.1 mph - N/A   Partly Cloudy
6:20 PM 55.4 °F - 44.6 °F 67% 29.92 in 6.2 mi SW 8.1 mph - N/A   Partly Cloudy
6:50 PM 55.4 °F - 44.6 °F 67% 29.92 in 6.2 mi SSW 4.6 mph - N/A   Partly Cloudy
7:20 PM 55.4 °F - 44.6 °F 67% 29.92 in 6.2 mi South 3.5 mph - N/A   Partly Cloudy
7:50 PM 51.8 °F - 44.6 °F 76% 29.95 in 6.2 mi North 3.5 mph - N/A   Partly Cloudy
8:20 PM 53.6 °F - 42.8 °F 67% 29.95 in 6.2 mi ENE 4.6 mph - N/A   Partly Cloudy
8:50 PM 51.8 °F - 42.8 °F 71% 29.95 in 6.2 mi Variable 1.2 mph - N/A   Partly Cloudy
9:00 PM 51 °F - 43 °F 65% 29.98 in 12 mi SE 1.2 mph - -   Scattered Clouds
9:20 PM 50.0 °F - 41.0 °F 71% 29.95 in - North 1.2 mph - N/A   Clear
9:50 PM 48.2 °F - 41.0 °F 76% 29.98 in - Variable 2.3 mph - N/A   Clear
10:20 PM 48.2 °F - 41.0 °F 76% 29.98 in - North 3.5 mph - N/A   Clear
10:50 PM 46.4 °F - 41.0 °F 81% 29.98 in - North 2.3 mph - N/A   Clear
11:20 PM 46.4 °F - 41.0 °F 81% 29.98 in - Variable 1.2 mph - N/A   Clear
11:50 PM 44.6 °F - 41.0 °F 87% 29.98 in - Variable 2.3 mph - N/A   Clear